User: anonymous   Login
Location: Unspecified
(0.0000°N, 0.0000°E)
Time: 17:58:16
(UTC+00:00)
Language:

PROBA 2 - Orbit

View from above orbital plane
View from above orbital plane
View from above satellite
View from above satellite

Ground track
Ground track

The orbit data is extracted from the following two-line orbital elements,

1 36037U 09059B   16152.15471356  .00000036  00000-0  19574-4 0  9998
2 36037  98.2646 345.3867 0014658  74.2811 286.0000 14.52949454348658
Epoch (UTC): 31 May 2016 03:42:47
Eccentricity: 0.0014658
inclination: 98.2646°
perigee height: 705 km
apogee height: 726 km
right ascension of ascending node: 345.3867°
argument of perigee: 74.2811°
revolutions per day: 14.52949454
mean anomaly at epoch: 286.0000°
orbit number at epoch: 34865

The dashed part of the orbit path shows where the satellite is in the earth's shadow,  

DLR